Tracking 17267 objects as of 30-August-2015
HD Live streaming from Space Station

COSMOS 2251 DEB

Track COSMOS 2251 DEB now!
10-day predictions
COSMOS 2251 DEB is classified as:


NORAD ID: 35448
Int'l Code: 1993-036AKS
Perigee: 758.2 km
Apogee: 777.5 km
Inclination: 73.9 °
Period: 100.0 minutes
Semi major axis: 7138 km
RCS: 0.0138 m2 (small)
Launch date: June 16, 1993
Source: Commonwealth of Independent States (former USSR) (CIS)

Note: This is SATELLITE DEBRIS
Your satellite tracking list
Your tracking list is empty





NASA's NSSDC Master Catalog

Two Line Element Set (TLE):
1 35448U 93036AKS 15241.58709904 +.00000926 +00000-0 +30641-3 0  9994
2 35448 073.9090 281.5008 0013566 171.1547 344.4976 14.39330355331274

Source of the keplerian elements: AFSPC

N2YO: 284